Weather History for Ithaca, NY

Change the Weather History Date:

Thursday, January 23, 2014

  Actual Average Record
Temperature  
Mean Temperature 5 °F -  
Max Temperature 12 °F 31 °F 58 °F (1933)
Min Temperature -2 °F 15 °F -17 °F (1982)
Degree Days  
Heating Degree Days 60    
Moisture  
Dew Point 0 °F    
Average Humidity 76    
Maximum Humidity 85    
Minimum Humidity 62    
Precipitation  
Precipitation 0.00 in - - ()
Sea Level Pressure  
Sea Level Pressure 30.12 in    
Wind  
Wind Speed 6 mph (NW)    
Max Wind Speed 18 mph    
Max Gust Speed 21 mph    
Visibility 7 miles    
Events Snow    
Averages and records for this station are not official NWS values.
T = Trace of Precipitation, MM = Missing Value Source: NWS Daily Summary

Daily Weather History Graph

Daily Weather History Graph

Search for Another Location

Airport:

Trip Planner

Search our weather history database for the weather conditions in past years. The results will help you decide how hot, cold, wet, or windy it might be!

Date:

Astronomy

Jan. 23, 2014 Rise Set
Actual Time 7:27 AM EST 5:08 PM EST
Civil Twilight 6:57 AM EST 5:38 PM EST
Nautical Twilight 6:23 AM EST 6:12 PM EST
Astronomical Twilight 5:49 AM EST 6:46 PM EST
Moon No Moon Rise 10:52 AM EST (1/23)
Length of Visible Light 10h 41m
Length of Day
9h 40m
Waning Gibbous, 55% of the Moon is Illuminated
Jan 23
Waning Gibbous
Jan 24
Last Quarter
Jan 30
New
Feb 6
First Quarter
Feb 14
Full

Hourly Weather History & Observations

Time (EST) Temp. Windchill Dew Point Humidity Pressure Visibility Wind Dir Wind Speed Gust Speed Precip Events Conditions
5:15 AM -2.2 °F - -5.8 °F 85% 30.00 in 7.0 mi Calm Calm - N/A   Overcast
5:56 AM -2.2 °F - -5.8 °F 85% 30.00 in 6.0 mi Calm Calm - N/A Snow Light Snow Showers
6:30 AM -0.4 °F -8.3 °F -5.8 °F 78% 30.02 in 6.0 mi Variable 3.5 mph - N/A Snow Light Snow Showers
6:56 AM -0.4 °F -8.3 °F -4.0 °F 85% 30.02 in 6.0 mi Variable 3.5 mph - N/A   Overcast
7:56 AM 1.4 °F -6.2 °F -4.0 °F 78% 30.03 in 4.0 mi Variable 3.5 mph - N/A Snow Light Snow Showers
8:56 AM 1.4 °F -6.2 °F -2.2 °F 85% 30.05 in 6.0 mi Variable 3.5 mph - N/A   Mostly Cloudy
9:56 AM 5.0 °F -4.1 °F -0.4 °F 78% 30.06 in 10.0 mi Variable 4.6 mph - N/A   Partly Cloudy
10:56 AM 8.6 °F 0.1 °F -0.4 °F 67% 30.08 in 10.0 mi WNW 4.6 mph - N/A   Scattered Clouds
11:56 AM 10.4 °F 0.8 °F 1.4 °F 67% 30.07 in 10.0 mi NW 5.8 mph - N/A   Scattered Clouds
12:56 PM 12.2 °F -1.0 °F 1.4 °F 62% 30.07 in 10.0 mi WNW 10.4 mph - N/A   Mostly Cloudy
1:56 PM 10.4 °F -3.3 °F -0.4 °F 62% 30.07 in 10.0 mi NW 10.4 mph - N/A   Mostly Cloudy
2:56 PM 12.2 °F -0.2 °F 3.2 °F 67% 30.09 in 5.0 mi WNW 9.2 mph 18.4 mph N/A   Mostly Cloudy
3:56 PM 10.4 °F -3.3 °F 3.2 °F 73% 30.12 in 6.0 mi NNW 10.4 mph - N/A   Mostly Cloudy
4:56 PM 10.4 °F -4.1 °F 3.2 °F 73% 30.14 in 5.0 mi NW 11.5 mph 18.4 mph N/A Snow Light Snow
5:56 PM 8.6 °F -5.5 °F 3.2 °F 79% 30.17 in 6.0 mi NNW 10.4 mph - N/A Snow Light Snow
6:27 PM 8.6 °F -4.7 °F 3.2 °F 79% 30.18 in 3.0 mi NNW 9.2 mph - N/A Snow Light Snow
6:56 PM 8.6 °F 0.1 °F 3.2 °F 79% 30.19 in 2.0 mi NNW 4.6 mph - N/A Snow Light Snow
7:56 PM 6.8 °F -12.4 °F 1.4 °F 79% 30.21 in 7.0 mi NNW 18.4 mph - N/A   Mostly Cloudy
8:56 PM 6.8 °F -10.7 °F -0.4 °F 72% 30.23 in 10.0 mi WNW 15.0 mph 20.7 mph N/A   Mostly Cloudy
9:56 PM 5.0 °F -13.6 °F -0.4 °F 78% 30.23 in 7.0 mi WNW 16.1 mph - N/A Snow Light Snow
10:16 PM 5.0 °F -11.6 °F -0.4 °F 78% 30.24 in 10.0 mi NNE 12.7 mph - N/A   Overcast
10:56 PM 5.0 °F -12.3 °F 1.4 °F 85% 30.22 in 10.0 mi WNW 13.8 mph - N/A   Scattered Clouds
11:16 PM 5.0 °F -5.6 °F 1.4 °F 85% 30.23 in 10.0 mi West 5.8 mph - N/A   Mostly Cloudy